This is the latest recevied weather packets stored in our database for station/object DC4AT. If no packets are shown the sender has not sent any weather packets the latest 10 day(s).
| Time | Temp. | Humidity | Pressure | Rain* | Wind** | Luminosity | Snow |
|---|---|---|---|---|---|---|---|
| 1787842057 | 27.22° C | 54% | 1013.1 hPa | 0 mm | - | 272 W/m² | - |
| 1787841457 | 27.22° C | 54% | 1013.2 hPa | 0 mm | - | 250 W/m² | - |
| 1787840857 | 27.22° C | 53% | 1013.3 hPa | 0 mm | - | 330 W/m² | - |
| 1787840257 | 27.78° C | 53% | 1013.3 hPa | 0 mm | - | 243 W/m² | - |
| 1787839657 | 27.78° C | 54% | 1013.4 hPa | 0 mm | - | 406 W/m² | - |
| 1787839057 | 27.78° C | 52% | 1013.4 hPa | 0 mm | - | 439 W/m² | - |
| 1787838457 | 27.78° C | 53% | 1013.4 hPa | 0 mm | - | 494 W/m² | - |
| 1787837857 | 27.78° C | 53% | 1013.2 hPa | 0 mm | - | 534 W/m² | - |
| 1787837257 | 27.78° C | 53% | 1013.3 hPa | 0 mm | - | 550 W/m² | - |
| 1787836657 | 27.22° C | 55% | 1013.3 hPa | 0 mm | - | 559 W/m² | - |
| 1787836057 | 27.22° C | 55% | 1013.3 hPa | 0 mm | - | 508 W/m² | - |
| 1787835457 | 27.78° C | 53% | 1013.8 hPa | 0 mm | - | 589 W/m² | - |
| 1787834857 | 27.78° C | 53% | 1013.8 hPa | 0 mm | - | 603 W/m² | - |
| 1787834257 | 27.78° C | 54% | 1013.9 hPa | 0 mm | - | 584 W/m² | - |
| 1787833657 | 27.78° C | 55% | 1013.9 hPa | 0 mm | - | 476 W/m² | - |
| 1787833057 | 27.22° C | 54% | 1014 hPa | 0 mm | - | 506 W/m² | - |
| 1787832457 | 27.22° C | 54% | 1014.1 hPa | 0 mm | - | 606 W/m² | - |
| 1787831857 | 27.22° C | 55% | 1014.1 hPa | 0 mm | - | 613 W/m² | - |
| 1787831257 | 26.67° C | 57% | 1014.3 hPa | 0 mm | - | 617 W/m² | - |
| 1787830657 | 26.11° C | 58% | 1014.3 hPa | 0 mm | - | 629 W/m² | - |
| 1787830057 | 25.56° C | 60% | 1014.4 hPa | 0 mm | - | 547 W/m² | - |
| 1787829457 | 25.56° C | 60% | 1014.5 hPa | 0 mm | - | 318 W/m² | - |
| 1787828857 | 25° C | 62% | 1014.5 hPa | 0 mm | - | 503 W/m² | - |
| 1787828257 | 25° C | 62% | 1014.5 hPa | 0 mm | - | 471 W/m² | - |
| 1787827657 | 24.44° C | 63% | 1014.4 hPa | 0 mm | - | 489 W/m² | - |
* Rain latest hour (hover to see other rain measurements)
** Current wind speed in m/s (hover to see current wind gust speed)